Columbia, CA

2:42 PM PST on February 11, 2016 (GMT -0800)
Columbia Airport

Weather History for KO22 - October, 2013

Change the Weather History Date:

Sunday, October 13, 2013

  Actual Average (KMOD) Record (KMOD)
Temperature  
Mean Temperature 55 °F -  
Max Temperature 71 °F 80 °F 96 °F (2015)
Min Temperature 39 °F 53 °F 40 °F (2008)
Degree Days  
Heating Degree Days 10 1  
Month to date heating degree days 10  
Since 1 July heating degree days 13  
Cooling Degree Days 0 3  
Month to date cooling degree days 59  
Year to date cooling degree days 1671  
Growing Degree Days 5 (Base 50)    
Moisture  
Dew Point 35 °F    
Average Humidity 54    
Maximum Humidity 81    
Minimum Humidity 26    
Precipitation  
Precipitation 0.00 in 0.02 in 1.57 in (2009)
Month to date precipitation 0.20  
Year to date precipitation 9.23  
Snow  
Snow 0.00 in - 0.00 in (2002)
Month to date snowfall  
Since 1 July snowfall  
Since 1 September snowfall  
Snow Depth -    
Sea Level Pressure  
Sea Level Pressure 29.98 in    
Wind  
Wind Speed 1 mph (West)    
Max Wind Speed 9 mph    
Max Gust Speed -    
Visibility 10 miles    
Events      
T = Trace of Precipitation, MM = Missing Value Source: NWS Daily Summary

Daily Weather History Graph

Daily Weather History Graph

Search for Another Location

Airport or City:

Trip Planner

Search our weather history database for the weather conditions in past years. The results will help you decide how hot, cold, wet, or windy it might be!

Date:

Astronomy

Oct. 13, 2013 Rise Set
Actual Time 7:08 AM PDT 6:26 PM PDT
Civil Twilight 6:42 AM PDT 6:52 PM PDT
Nautical Twilight 6:11 AM PDT 7:23 PM PDT
Astronomical Twilight 5:41 AM PDT 7:53 PM PDT
Moon 3:16 PM PDT (10/13) 1:29 AM PDT (10/13)
Length of Visible Light 12h 10m
Length of Day
11h 17m
Waxing Gibbous, 70% of the Moon is Illuminated
Oct 13
Waxing Gibbous
Oct 18
Full
Oct 26
Last Quarter
Nov 3
New
Nov 9
First Quarter

Hourly Weather History & Observations

Time (PDT) Temp. Dew Point Humidity Pressure Visibility Wind Dir Wind Speed Gust Speed Precip Events Conditions
12:15 AM 46.4 °F 35.6 °F 66% 29.91 in 10.0 mi Calm Calm - N/A   Overcast
12:35 AM 44.6 °F 35.6 °F 71% 29.91 in 10.0 mi Calm Calm - N/A   Overcast
12:55 AM 44.6 °F 35.6 °F 71% 29.91 in 10.0 mi Calm Calm - N/A   Overcast
1:15 AM 42.8 °F 35.6 °F 76% 29.90 in 10.0 mi Calm Calm - N/A   Overcast
1:35 AM 42.8 °F 35.6 °F 76% 29.90 in 10.0 mi Calm Calm - N/A   Overcast
1:55 AM 42.8 °F 35.6 °F 76% 29.90 in 10.0 mi Calm Calm - N/A   Overcast
2:15 AM 42.8 °F 33.8 °F 70% 29.90 in 10.0 mi Calm Calm - N/A   Overcast
2:35 AM 42.8 °F 35.6 °F 76% 29.90 in 10.0 mi Calm Calm - N/A   Mostly Cloudy
2:55 AM 41.0 °F 35.6 °F 81% 29.90 in 10.0 mi Calm Calm - N/A   Mostly Cloudy
3:15 AM 41.0 °F 33.8 °F 76% 29.90 in 10.0 mi Calm Calm - N/A   Overcast
3:35 AM 41.0 °F 33.8 °F 76% 29.89 in 10.0 mi Calm Calm - N/A   Overcast
3:55 AM 41.0 °F 33.8 °F 76% 29.89 in 10.0 mi Calm Calm - N/A   Overcast
4:15 AM 39.2 °F 33.8 °F 81% 29.90 in 10.0 mi Calm Calm - N/A   Overcast
4:35 AM 39.2 °F 32.0 °F 75% 29.90 in 10.0 mi Calm Calm - N/A   Overcast
4:55 AM 39.2 °F 33.8 °F 81% 29.90 in 10.0 mi Calm Calm - N/A   Overcast
5:15 AM 39.2 °F 33.8 °F 81% 29.91 in 10.0 mi Calm Calm - N/A   Overcast
5:35 AM 41.0 °F 33.8 °F 76% 29.91 in 10.0 mi Calm Calm - N/A   Overcast
5:55 AM 39.2 °F 33.8 °F 81% 29.92 in 10.0 mi Calm Calm - N/A   Mostly Cloudy
6:15 AM 39.2 °F 33.8 °F 81% 29.92 in 10.0 mi Calm Calm - N/A   Mostly Cloudy
6:35 AM 39.2 °F 33.8 °F 81% 29.92 in 10.0 mi Calm Calm - N/A   Overcast
6:55 AM 39.2 °F 33.8 °F 81% 29.93 in 10.0 mi Calm Calm - N/A   Mostly Cloudy
7:15 AM 41.0 °F 33.8 °F 76% 29.94 in 10.0 mi Calm Calm - N/A   Clear
7:35 AM 39.2 °F 33.8 °F 81% 29.94 in 10.0 mi Calm Calm - N/A   Clear
7:55 AM 41.0 °F 35.6 °F 81% 29.95 in 10.0 mi Calm Calm - N/A   Clear
8:15 AM 44.6 °F 35.6 °F 71% 29.95 in 10.0 mi Calm Calm - N/A   Clear
8:55 AM 51.8 °F 37.4 °F 58% 29.96 in 10.0 mi Calm Calm - N/A   Clear
9:15 AM 55.4 °F 37.4 °F 51% 29.97 in 10.0 mi Calm Calm - N/A   Clear
9:35 AM 57.2 °F 37.4 °F 48% 29.97 in 10.0 mi Calm Calm - N/A   Clear
9:55 AM 59.0 °F 37.4 °F 45% 29.97 in 10.0 mi Calm Calm - N/A   Clear
10:15 AM 64.4 °F 37.4 °F 37% 29.98 in 10.0 mi WSW 3.5 mph - N/A   Clear
10:35 AM 64.4 °F 37.4 °F 37% 29.99 in 10.0 mi WNW 4.6 mph - N/A   Clear
10:55 AM 64.4 °F 35.6 °F 34% 29.99 in 10.0 mi WNW 4.6 mph - N/A   Clear
11:15 AM 64.4 °F 35.6 °F 34% 29.99 in 10.0 mi WSW 4.6 mph - N/A   Clear
11:35 AM 66.2 °F 35.6 °F 32% 29.99 in 10.0 mi West 5.8 mph - N/A   Clear
11:55 AM 66.2 °F 35.6 °F 32% 29.99 in 10.0 mi WSW 4.6 mph - N/A   Clear
12:15 PM 66.2 °F 35.6 °F 32% 29.99 in 10.0 mi WSW 6.9 mph - N/A   Clear
12:35 PM 68.0 °F 35.6 °F 30% 29.99 in 10.0 mi SW 5.8 mph - N/A   Clear
12:55 PM 68.0 °F 35.6 °F 30% 29.99 in 10.0 mi Calm Calm - N/A   Clear
1:15 PM 68.0 °F 35.6 °F 30% 29.98 in 10.0 mi West 5.8 mph - N/A   Clear
1:35 PM 69.8 °F 37.4 °F 31% 29.98 in 10.0 mi WSW 8.1 mph - N/A   Clear
1:55 PM 69.8 °F 35.6 °F 28% 29.98 in 10.0 mi WNW 8.1 mph - N/A   Clear
2:15 PM 71.6 °F 35.6 °F 27% 29.99 in 10.0 mi West 8.1 mph - N/A   Clear
2:35 PM 69.8 °F 35.6 °F 28% 29.99 in 10.0 mi West 8.1 mph - N/A   Clear
2:55 PM 71.6 °F 35.6 °F 27% 29.99 in 10.0 mi West 9.2 mph - N/A   Clear
3:15 PM 69.8 °F 35.6 °F 28% 29.99 in 10.0 mi West 8.1 mph - N/A   Clear
3:35 PM 69.8 °F 35.6 °F 28% 29.99 in 10.0 mi West 6.9 mph - N/A   Clear
3:55 PM 69.8 °F 33.8 °F 27% 29.99 in 10.0 mi West 8.1 mph - N/A   Clear
4:15 PM 69.8 °F 33.8 °F 27% 30.00 in 10.0 mi West 5.8 mph - N/A   Clear
4:35 PM 68.0 °F 32.0 °F 26% 30.00 in 10.0 mi NW 6.9 mph - N/A   Clear
4:55 PM 68.0 °F 32.0 °F 26% 30.00 in 10.0 mi West 8.1 mph - N/A   Clear
5:15 PM 68.0 °F 35.6 °F 30% 30.01 in 10.0 mi West 5.8 mph - N/A   Clear
5:35 PM 66.2 °F 35.6 °F 32% 30.01 in 10.0 mi West 6.9 mph - N/A   Clear
5:55 PM 64.4 °F 35.6 °F 34% 30.01 in 10.0 mi WNW 4.6 mph - N/A   Clear
6:15 PM 62.6 °F 35.6 °F 37% 30.02 in 10.0 mi NW 3.5 mph - N/A   Clear
6:35 PM 60.8 °F 33.8 °F 36% 30.02 in 10.0 mi Calm Calm - N/A   Clear
6:55 PM 57.2 °F 33.8 °F 41% 30.03 in 10.0 mi Calm Calm - N/A   Clear
7:15 PM 57.2 °F 35.6 °F 44% 30.03 in 10.0 mi Calm Calm - N/A   Clear
7:35 PM 55.4 °F 35.6 °F 47% 30.03 in 10.0 mi Calm Calm - N/A   Clear
7:55 PM 55.4 °F 35.6 °F 47% 30.04 in 10.0 mi Calm Calm - N/A   Clear
8:15 PM 53.6 °F 35.6 °F 51% 30.04 in 10.0 mi Calm Calm - N/A   Clear
8:35 PM 51.8 °F 35.6 °F 54% 30.05 in 10.0 mi Calm Calm - N/A   Clear
8:55 PM 50.0 °F 35.6 °F 58% 30.05 in 10.0 mi Calm Calm - N/A   Clear
9:15 PM 48.2 °F 35.6 °F 62% 30.05 in 10.0 mi Calm Calm - N/A   Clear
9:35 PM 50.0 °F 35.6 °F 58% 30.05 in 10.0 mi Calm Calm - N/A   Clear
9:55 PM 50.0 °F 35.6 °F 58% 30.05 in 10.0 mi Calm Calm - N/A   Clear
10:15 PM 48.2 °F 35.6 °F 62% 30.05 in 10.0 mi Calm Calm - N/A   Clear
10:35 PM 48.2 °F 35.6 °F 62% 30.06 in 10.0 mi Calm Calm - N/A   Clear
10:55 PM 48.2 °F 35.6 °F 62% 30.06 in 10.0 mi Calm Calm - N/A   Clear
11:15 PM 48.2 °F 35.6 °F 62% 30.06 in 10.0 mi Calm Calm - N/A   Clear
11:35 PM 48.2 °F 35.6 °F 62% 30.07 in 10.0 mi Calm Calm - N/A   Clear
11:55 PM 48.2 °F 37.4 °F 66% 30.07 in 10.0 mi Calm Calm - N/A   Clear